Time,TemperatureF,DewpointF,PressureIn,WindDirection,WindDirectionDegrees,WindSpeedMPH,WindSpeedGustMPH,Humidity,HourlyPrecipIn,Conditions,Clouds,dailyrainin,SoftwareType,DateUTC
2013-05-26 00:02:00,70.6,65.9,30.08,NNW,347,25.0,38.0,85,0.00,,,0.00,Weather View 32 v70,2013-05-26 10:02:00,
2013-05-26 00:07:00,70.5,65.8,30.09,North,6,27.0,39.0,85,0.00,,,0.00,Weather View 32 v70,2013-05-26 10:07:00,
2013-05-26 00:12:00,70.5,65.8,30.09,NNE,23,21.0,39.0,85,0.00,,,0.00,Weather View 32 v70,2013-05-26 10:12:00,
2013-05-26 00:17:00,70.6,65.5,30.09,NNE,22,24.0,39.0,84,0.00,,,0.00,Weather View 32 v70,2013-05-26 10:17:00,
2013-05-26 00:22:00,70.5,65.4,30.08,NW,323,28.0,39.0,84,0.00,,,0.00,Weather View 32 v70,2013-05-26 10:22:00,
2013-05-26 00:27:00,70.6,65.5,30.08,North,8,26.0,39.0,84,0.00,,,0.00,Weather View 32 v70,2013-05-26 10:27:00,
2013-05-26 00:32:00,70.6,65.9,30.09,North,1,33.0,39.0,85,0.00,,,0.00,Weather View 32 v70,2013-05-26 10:32:00,
2013-05-26 00:37:00,70.6,65.9,30.07,NNW,345,29.0,39.0,85,0.00,,,0.00,Weather View 32 v70,2013-05-26 10:37:00,
2013-05-26 00:42:00,70.5,65.8,30.08,North,8,21.0,39.0,85,0.00,,,0.00,Weather View 32 v70,2013-05-26 10:42:00,
2013-05-26 00:48:00,70.4,65.7,30.08,North,360,16.0,39.0,85,0.00,,,0.00,Weather View 32 v70,2013-05-26 10:48:00,
2013-05-26 00:53:00,70.4,65.3,30.08,NNW,339,25.0,39.0,84,0.00,,,0.00,Weather View 32 v70,2013-05-26 10:53:00,
2013-05-26 00:58:00,70.2,65.5,30.08,North,359,28.0,39.0,85,0.00,,,0.00,Weather View 32 v70,2013-05-26 10:58:00,
2013-05-26 01:03:00,70.3,65.6,30.07,NNE,13,21.0,39.0,85,0.00,,,0.00,Weather View 32 v70,2013-05-26 11:03:00,
2013-05-26 01:08:00,70.2,65.5,30.06,NW,326,22.0,38.0,85,0.00,,,0.00,Weather View 32 v70,2013-05-26 11:08:00,
2013-05-26 01:13:00,70.1,65.4,30.07,North,351,22.0,38.0,85,0.00,,,0.00,Weather View 32 v70,2013-05-26 11:13:00,
2013-05-26 01:18:00,70.1,65.0,30.05,North,7,16.0,38.0,84,0.00,,,0.00,Weather View 32 v70,2013-05-26 11:18:00,
2013-05-26 01:23:00,70.0,64.9,30.07,NNE,18,19.0,38.0,84,0.00,,,0.00,Weather View 32 v70,2013-05-26 11:23:00,
2013-05-26 01:28:00,70.0,64.9,30.07,NNW,346,15.0,38.0,84,0.00,,,0.00,Weather View 32 v70,2013-05-26 11:28:00,
2013-05-26 01:33:00,70.0,64.9,30.08,NE,37,18.0,38.0,84,0.00,,,0.00,Weather View 32 v70,2013-05-26 11:33:00,
2013-05-26 01:38:00,70.0,64.9,30.07,NNE,15,16.0,36.0,84,0.00,,,0.00,Weather View 32 v70,2013-05-26 11:38:00,
2013-05-26 01:43:00,70.0,65.3,30.07,NNW,342,21.0,36.0,85,0.00,,,0.00,Weather View 32 v70,2013-05-26 11:43:00,
2013-05-26 01:48:00,69.8,65.1,30.07,NNW,333,15.0,36.0,85,0.00,,,0.00,Weather View 32 v70,2013-05-26 11:48:00,
2013-05-26 01:53:00,69.9,65.2,30.07,North,359,25.0,36.0,85,0.00,,,0.00,Weather View 32 v70,2013-05-26 11:53:00,
2013-05-26 01:58:00,69.8,65.1,30.05,North,354,22.0,36.0,85,0.00,,,0.00,Weather View 32 v70,2013-05-26 11:58:00,
2013-05-26 02:03:00,69.8,65.1,30.05,NW,308,16.0,36.0,85,0.00,,,0.00,Weather View 32 v70,2013-05-26 12:03:00,
2013-05-26 02:08:00,69.7,65.3,30.05,NNW,346,31.0,36.0,86,0.00,,,0.00,Weather View 32 v70,2013-05-26 12:08:00,
2013-05-26 02:13:00,69.7,65.3,30.05,NW,326,24.0,37.0,86,0.00,,,0.00,Weather View 32 v70,2013-05-26 12:13:00,
2013-05-26 02:18:00,69.6,65.2,30.05,North,8,29.0,37.0,86,0.00,,,0.00,Weather View 32 v70,2013-05-26 12:18:00,
2013-05-26 02:23:00,69.4,65.0,30.06,NW,321,14.0,37.0,86,0.00,,,0.00,Weather View 32 v70,2013-05-26 12:23:00,
2013-05-26 02:28:00,69.5,64.8,30.04,NNW,330,22.0,37.0,85,0.00,,,0.00,Weather View 32 v70,2013-05-26 12:28:00,
2013-05-26 02:33:00,70.0,64.9,30.05,North,360,30.0,37.0,84,0.00,,,0.00,Weather View 32 v70,2013-05-26 12:33:00,
2013-05-26 02:38:00,69.9,64.8,30.04,East,80,31.0,37.0,84,0.00,,,0.00,Weather View 32 v70,2013-05-26 12:38:00,
2013-05-26 02:43:00,69.9,64.8,30.05,NNW,340,25.0,37.0,84,0.00,,,0.00,Weather View 32 v70,2013-05-26 12:43:00,
2013-05-26 02:48:00,69.9,64.8,30.06,North,10,23.0,37.0,84,0.00,,,0.00,Weather View 32 v70,2013-05-26 12:48:00,
2013-05-26 02:53:00,69.9,64.5,30.05,NNW,342,24.0,37.0,83,0.00,,,0.00,Weather View 32 v70,2013-05-26 12:53:00,
2013-05-26 02:58:00,70.0,64.6,30.05,North,10,22.0,37.0,83,0.00,,,0.00,Weather View 32 v70,2013-05-26 12:58:00,
2013-05-26 03:03:00,70.0,64.6,30.05,North,359,25.0,37.0,83,0.00,,,0.00,Weather View 32 v70,2013-05-26 13:03:00,
2013-05-26 03:08:00,70.0,64.9,30.04,NW,322,19.0,37.0,84,0.00,,,0.00,Weather View 32 v70,2013-05-26 13:08:00,
2013-05-26 03:13:00,70.0,64.9,30.05,North,359,32.0,37.0,84,0.00,,,0.00,Weather View 32 v70,2013-05-26 13:13:00,
2013-05-26 03:18:00,70.1,65.0,30.05,NNW,340,23.0,37.0,84,0.00,,,0.00,Weather View 32 v70,2013-05-26 13:18:00,
2013-05-26 03:23:00,70.1,65.0,30.05,North,356,26.0,37.0,84,0.00,,,0.00,Weather View 32 v70,2013-05-26 13:23:00,
2013-05-26 03:28:00,70.1,65.0,30.05,North,350,21.0,37.0,84,0.00,,,0.00,Weather View 32 v70,2013-05-26 13:28:00,
2013-05-26 03:33:00,70.1,65.0,30.04,NW,322,23.0,37.0,84,0.00,,,0.00,Weather View 32 v70,2013-05-26 13:33:00,
2013-05-26 03:38:00,70.1,65.4,30.04,North,6,24.0,37.0,85,0.00,,,0.00,Weather View 32 v70,2013-05-26 13:38:00,
2013-05-26 03:43:00,70.0,65.3,30.03,North,357,29.0,35.0,85,0.00,,,0.00,Weather View 32 v70,2013-05-26 13:43:00,
2013-05-26 03:49:00,70.1,65.4,30.03,NNE,12,20.0,37.0,85,0.00,,,0.00,Weather View 32 v70,2013-05-26 13:49:00,
2013-05-26 03:54:00,70.0,64.9,30.04,NNW,341,25.0,38.0,84,0.00,,,0.00,Weather View 32 v70,2013-05-26 13:54:00,
2013-05-26 03:59:00,70.1,65.0,30.04,NNW,332,26.0,38.0,84,0.00,,,0.00,Weather View 32 v70,2013-05-26 13:59:00,
2013-05-26 04:04:00,69.9,64.8,30.05,NNW,330,18.0,38.0,84,0.00,,,0.00,Weather View 32 v70,2013-05-26 14:04:00,
2013-05-26 04:09:00,69.8,64.7,30.03,North,2,33.0,38.0,84,0.00,,,0.00,Weather View 32 v70,2013-05-26 14:09:00,
2013-05-26 04:14:00,70.0,64.6,30.05,NW,326,17.0,38.0,83,0.00,,,0.00,Weather View 32 v70,2013-05-26 14:14:00,
2013-05-26 04:19:00,70.0,64.9,30.04,North,359,30.0,38.0,84,0.00,,,0.00,Weather View 32 v70,2013-05-26 14:19:00,
2013-05-26 04:24:00,70.0,64.9,30.06,NNW,347,10.0,38.0,84,0.00,,,0.00,Weather View 32 v70,2013-05-26 14:24:00,
2013-05-26 04:29:00,70.1,65.4,30.05,NNE,12,20.0,38.0,85,0.00,,,0.00,Weather View 32 v70,2013-05-26 14:29:00,
2013-05-26 04:34:00,69.9,65.2,30.05,North,358,20.0,38.0,85,0.00,,,0.00,Weather View 32 v70,2013-05-26 14:34:00,
2013-05-26 04:39:00,70.1,65.0,30.05,NNE,14,22.0,38.0,84,0.00,,,0.00,Weather View 32 v70,2013-05-26 14:39:00,
2013-05-26 04:44:00,70.1,65.0,30.05,NW,319,27.0,38.0,84,0.00,,,0.00,Weather View 32 v70,2013-05-26 14:44:00,
2013-05-26 04:49:00,70.0,64.9,30.05,NNW,328,28.0,38.0,84,0.00,,,0.00,Weather View 32 v70,2013-05-26 14:49:00,
2013-05-26 04:54:00,70.1,65.0,30.04,North,357,29.0,37.0,84,0.00,,,0.00,Weather View 32 v70,2013-05-26 14:54:00,
2013-05-26 04:59:00,70.1,65.0,30.06,NNW,330,14.0,37.0,84,0.00,,,0.00,Weather View 32 v70,2013-05-26 14:59:00,
2013-05-26 05:04:00,70.2,64.8,30.05,NNW,347,19.0,37.0,83,0.00,,,0.00,Weather View 32 v70,2013-05-26 15:04:00,
2013-05-26 05:09:00,70.2,65.1,30.05,North,352,21.0,37.0,84,0.00,,,0.00,Weather View 32 v70,2013-05-26 15:09:00,
2013-05-26 05:14:00,70.2,64.8,30.05,NNW,336,21.0,37.0,83,0.00,,,0.00,Weather View 32 v70,2013-05-26 15:14:00,
2013-05-26 05:19:00,70.4,65.0,30.04,North,5,24.0,35.0,83,0.00,,,0.00,Weather View 32 v70,2013-05-26 15:19:00,
2013-05-26 05:24:00,70.3,64.9,30.05,North,2,21.0,35.0,83,0.00,,,0.00,Weather View 32 v70,2013-05-26 15:24:00,
2013-05-26 05:29:00,70.3,64.9,30.05,North,356,28.0,35.0,83,0.00,,,0.00,Weather View 32 v70,2013-05-26 15:29:00,
2013-05-26 05:34:00,70.4,65.0,30.06,NNW,345,26.0,35.0,83,0.00,,,0.00,Weather View 32 v70,2013-05-26 15:34:00,
2013-05-26 05:39:00,70.4,65.0,30.06,NNW,344,10.0,35.0,83,0.00,,,0.00,Weather View 32 v70,2013-05-26 15:39:00,
2013-05-26 05:44:00,70.3,64.9,30.07,North,10,20.0,34.0,83,0.00,,,0.00,Weather View 32 v70,2013-05-26 15:44:00,
2013-05-26 05:49:00,70.3,65.2,30.07,NNW,338,14.0,34.0,84,0.00,,,0.00,Weather View 32 v70,2013-05-26 15:49:00,
2013-05-26 05:54:00,70.3,65.2,30.06,North,349,17.0,34.0,84,0.00,,,0.00,Weather View 32 v70,2013-05-26 15:54:00,
2013-05-26 05:59:00,70.3,65.6,30.06,North,359,20.0,34.0,85,0.00,,,0.00,Weather View 32 v70,2013-05-26 15:59:00,
2013-05-26 06:04:00,70.4,65.7,30.05,NNW,343,13.0,34.0,85,0.00,,,0.00,Weather View 32 v70,2013-05-26 16:04:00,
2013-05-26 06:09:00,70.5,65.8,30.06,North,350,23.0,34.0,85,0.00,,,0.00,Weather View 32 v70,2013-05-26 16:09:00,
2013-05-26 06:14:00,70.6,65.9,30.07,North,349,26.0,34.0,85,0.00,,,0.00,Weather View 32 v70,2013-05-26 16:14:00,
2013-05-26 06:20:00,70.8,66.0,30.06,NNW,334,16.0,34.0,85,0.00,,,0.00,Weather View 32 v70,2013-05-26 16:20:00,
2013-05-26 06:25:00,70.9,66.1,30.08,NNW,337,17.0,34.0,85,0.00,,,0.00,Weather View 32 v70,2013-05-26 16:25:00,
2013-05-26 06:30:00,70.8,65.7,30.08,North,4,8.0,34.0,84,0.00,,,0.00,Weather View 32 v70,2013-05-26 16:30:00,
2013-05-26 06:35:00,70.8,65.4,30.08,North,2,19.0,31.0,83,0.00,,,0.00,Weather View 32 v70,2013-05-26 16:35:00,
2013-05-26 06:40:00,70.9,65.8,30.08,NNW,332,23.0,31.0,84,0.00,,,0.00,Weather View 32 v70,2013-05-26 16:40:00,
2013-05-26 06:45:00,70.9,65.5,30.07,NNW,337,25.0,35.0,83,0.00,,,0.00,Weather View 32 v70,2013-05-26 16:45:00,
2013-05-26 06:50:00,71.0,65.6,30.08,North,353,29.0,35.0,83,0.00,,,0.00,Weather View 32 v70,2013-05-26 16:50:00,
2013-05-26 06:55:00,71.0,65.6,30.06,North,352,22.0,36.0,83,0.00,,,0.00,Weather View 32 v70,2013-05-26 16:55:00,
2013-05-26 07:00:00,70.9,65.8,30.06,NNW,329,16.0,36.0,84,0.00,,,0.00,Weather View 32 v70,2013-05-26 17:00:00,
2013-05-26 07:05:00,71.2,65.4,30.07,North,354,31.0,36.0,82,0.00,,,0.00,Weather View 32 v70,2013-05-26 17:05:00,
2013-05-26 07:10:00,71.4,64.5,30.08,NNW,347,22.0,36.0,79,0.00,,,0.00,Weather View 32 v70,2013-05-26 17:10:00,
2013-05-26 07:15:00,71.5,64.6,30.07,North,359,20.0,36.0,79,0.00,,,0.00,Weather View 32 v70,2013-05-26 17:15:00,
2013-05-26 07:20:00,71.6,64.7,30.07,NNW,346,35.0,36.0,79,0.00,,,0.00,Weather View 32 v70,2013-05-26 17:20:00,
2013-05-26 07:25:00,71.6,65.4,30.08,North,355,27.0,36.0,81,0.00,,,0.00,Weather View 32 v70,2013-05-26 17:25:00,
2013-05-26 07:30:00,71.5,65.3,30.08,North,359,19.0,36.0,81,0.00,,,0.00,Weather View 32 v70,2013-05-26 17:30:00,
2013-05-26 07:35:00,71.3,65.5,30.08,North,354,22.0,36.0,82,0.00,,,0.00,Weather View 32 v70,2013-05-26 17:35:00,
2013-05-26 07:40:00,71.2,65.4,30.08,NNE,22,19.0,37.0,82,0.00,,,0.00,Weather View 32 v70,2013-05-26 17:40:00,
2013-05-26 07:45:00,71.3,65.8,30.07,North,359,26.0,37.0,83,0.00,,,0.00,Weather View 32 v70,2013-05-26 17:45:00,
2013-05-26 07:50:00,71.5,66.0,30.08,North,352,20.0,39.0,83,0.00,,,0.00,Weather View 32 v70,2013-05-26 17:50:00,
2013-05-26 07:55:00,71.3,65.8,30.08,NNW,347,22.0,39.0,83,0.00,,,0.00,Weather View 32 v70,2013-05-26 17:55:00,
2013-05-26 08:00:00,71.2,66.1,30.08,NW,324,21.0,39.0,84,0.00,,,0.00,Weather View 32 v70,2013-05-26 18:00:00,
2013-05-26 08:05:00,70.9,65.1,30.07,NNW,338,19.0,41.0,82,0.00,,,0.00,Weather View 32 v70,2013-05-26 18:05:00,
2013-05-26 08:10:00,71.3,65.1,30.09,NNE,13,10.0,41.0,81,0.00,,,0.00,Weather View 32 v70,2013-05-26 18:10:00,
2013-05-26 08:15:00,71.9,65.4,30.09,NNW,328,14.0,41.0,80,0.00,,,0.00,Weather View 32 v70,2013-05-26 18:15:00,
2013-05-26 08:20:00,71.7,65.2,30.07,North,6,27.0,41.0,80,0.00,,,0.00,Weather View 32 v70,2013-05-26 18:20:00,
2013-05-26 08:25:00,71.7,65.2,30.08,North,10,20.0,41.0,80,0.00,,,0.00,Weather View 32 v70,2013-05-26 18:25:00,
2013-05-26 08:30:00,72.2,65.7,30.06,NE,34,26.0,41.0,80,0.00,,,0.00,Weather View 32 v70,2013-05-26 18:30:00,
2013-05-26 08:35:00,72.5,65.2,30.06,North,356,37.0,41.0,78,0.00,,,0.00,Weather View 32 v70,2013-05-26 18:35:00,
2013-05-26 08:40:00,72.6,64.6,30.07,NNE,22,28.0,41.0,76,0.00,,,0.00,Weather View 32 v70,2013-05-26 18:40:00,
2013-05-26 08:51:00,72.3,65.0,30.08,NNW,345,25.0,44.0,78,0.00,,,0.00,Weather View 32 v70,2013-05-26 18:51:00,
2013-05-26 09:00:00,71.8,65.3,30.06,NW,322,14.0,44.0,80,0.00,,,0.00,Weather View 32 v70,2013-05-26 19:00:00,
2013-05-26 09:05:00,71.8,65.6,30.09,NNW,330,26.0,44.0,81,0.00,,,0.00,Weather View 32 v70,2013-05-26 19:05:00,
2013-05-26 09:13:00,72.1,65.9,30.08,North,359,30.0,44.0,81,0.00,,,0.00,Weather View 32 v70,2013-05-26 19:13:00,
2013-05-26 09:18:00,72.0,65.8,30.09,North,6,17.0,44.0,81,0.00,,,0.00,Weather View 32 v70,2013-05-26 19:18:00,
2013-05-26 09:23:00,72.3,65.4,30.08,NNW,343,27.0,44.0,79,0.00,,,0.00,Weather View 32 v70,2013-05-26 19:23:00,
2013-05-26 09:28:00,72.3,65.8,30.09,NW,322,15.0,44.0,80,0.00,,,0.00,Weather View 32 v70,2013-05-26 19:28:00,
2013-05-26 09:33:00,72.5,66.3,30.08,North,359,19.0,44.0,81,0.00,,,0.00,Weather View 32 v70,2013-05-26 19:33:00,
2013-05-26 09:38:00,72.3,66.1,30.09,NNW,347,23.0,44.0,81,0.00,,,0.00,Weather View 32 v70,2013-05-26 19:38:00,
2013-05-26 09:43:00,72.3,66.1,30.08,NNW,347,25.0,44.0,81,0.00,,,0.00,Weather View 32 v70,2013-05-26 19:43:00,
2013-05-26 09:48:00,72.4,66.2,30.09,North,356,19.0,44.0,81,0.00,,,0.00,Weather View 32 v70,2013-05-26 19:48:00,
2013-05-26 09:53:00,72.7,66.5,30.09,NNE,13,20.0,39.0,81,0.00,,,0.00,Weather View 32 v70,2013-05-26 19:53:00,
2013-05-26 09:58:00,72.8,65.9,30.08,North,354,17.0,39.0,79,0.00,,,0.00,Weather View 32 v70,2013-05-26 19:58:00,
2013-05-26 10:03:00,73.3,66.0,30.07,NNE,16,23.0,39.0,78,0.00,,,0.00,Weather View 32 v70,2013-05-26 20:03:00,
2013-05-26 10:08:00,73.8,67.2,30.08,North,8,17.0,37.0,80,0.00,,,0.00,Weather View 32 v70,2013-05-26 20:08:00,
2013-05-26 10:13:00,73.6,65.9,30.07,North,4,27.0,37.0,77,0.00,,,0.00,Weather View 32 v70,2013-05-26 20:13:00,
2013-05-26 10:18:00,73.3,65.6,30.08,NNE,24,25.0,39.0,77,0.00,,,0.00,Weather View 32 v70,2013-05-26 20:18:00,
2013-05-26 10:23:00,72.9,66.0,30.07,NE,53,8.0,39.0,79,0.00,,,0.00,Weather View 32 v70,2013-05-26 20:23:00,
2013-05-26 10:28:00,73.2,66.6,30.08,North,5,19.0,39.0,80,0.00,,,0.00,Weather View 32 v70,2013-05-26 20:28:00,
2013-05-26 10:34:00,73.1,66.5,30.07,North,355,28.0,39.0,80,0.00,,,0.00,Weather View 32 v70,2013-05-26 20:34:00,
2013-05-26 10:39:00,73.3,66.4,30.07,North,10,29.0,39.0,79,0.00,,,0.00,Weather View 32 v70,2013-05-26 20:39:00,
2013-05-26 11:05:00,73.8,67.2,30.05,North,6,30.0,39.0,80,0.00,,,0.00,Weather View 32 v70,2013-05-26 21:05:00,
2013-05-26 11:10:00,73.4,66.8,30.06,North,6,28.0,39.0,80,0.00,,,0.00,Weather View 32 v70,2013-05-26 21:10:00,
2013-05-26 11:15:00,73.7,67.1,30.07,North,9,22.0,35.0,80,0.00,,,0.00,Weather View 32 v70,2013-05-26 21:15:00,
2013-05-26 11:20:00,73.4,66.8,30.07,North,349,25.0,35.0,80,0.00,,,0.00,Weather View 32 v70,2013-05-26 21:20:00,
2013-05-26 11:21:00,73.3,66.7,30.06,North,357,34.0,35.0,80,0.00,,,0.00,Weather View 32 v70,2013-05-26 21:21:00,
2013-05-26 11:22:00,73.2,66.6,30.06,North,351,28.0,35.0,80,0.00,,,0.00,Weather View 32 v70,2013-05-26 21:22:00,
2013-05-26 11:23:00,73.1,66.9,30.07,NNW,337,24.0,35.0,81,0.00,,,0.00,Weather View 32 v70,2013-05-26 21:23:00,
2013-05-26 11:24:00,73.1,66.9,30.06,North,10,29.0,35.0,81,0.00,,,0.00,Weather View 32 v70,2013-05-26 21:24:00,
2013-05-26 11:25:00,73.1,66.9,30.06,North,1,20.0,35.0,81,0.00,,,0.00,Weather View 32 v70,2013-05-26 21:25:00,
2013-05-26 11:26:00,73.2,67.0,30.07,NNE,16,25.0,35.0,81,0.00,,,0.00,Weather View 32 v70,2013-05-26 21:26:00,
2013-05-26 11:27:00,73.3,67.4,30.07,North,8,28.0,35.0,82,0.00,,,0.00,Weather View 32 v70,2013-05-26 21:27:00,
2013-05-26 11:28:00,73.2,67.0,30.06,North,11,25.0,35.0,81,0.00,,,0.00,Weather View 32 v70,2013-05-26 21:28:00,
2013-05-26 11:29:00,73.2,67.0,30.06,North,359,23.0,35.0,81,0.00,,,0.00,Weather View 32 v70,2013-05-26 21:29:00,
2013-05-26 11:30:00,73.3,66.7,30.07,North,353,27.0,35.0,80,0.00,,,0.00,Weather View 32 v70,2013-05-26 21:30:00,
2013-05-26 11:31:00,73.3,66.7,30.07,North,355,20.0,35.0,80,0.00,,,0.00,Weather View 32 v70,2013-05-26 21:31:00,
2013-05-26 11:32:00,73.4,66.8,30.07,NNW,347,27.0,35.0,80,0.00,,,0.00,Weather View 32 v70,2013-05-26 21:32:00,
2013-05-26 11:33:00,73.3,66.7,30.06,North,9,23.0,34.0,80,0.00,,,0.00,Weather View 32 v70,2013-05-26 21:33:00,
2013-05-26 11:35:00,73.3,66.4,30.06,North,353,28.0,34.0,79,0.00,,,0.00,Weather View 32 v70,2013-05-26 21:35:00,
2013-05-26 11:40:00,73.3,66.0,30.06,North,8,25.0,34.0,78,0.00,,,0.00,Weather View 32 v70,2013-05-26 21:40:00,
2013-05-26 11:43:00,73.4,66.8,30.07,North,4,28.0,34.0,80,0.00,,,0.00,Weather View 32 v70,2013-05-26 21:43:00,
2013-05-26 11:49:00,73.5,66.2,30.07,North,350,28.0,34.0,78,0.00,,,0.00,Weather View 32 v70,2013-05-26 21:49:00,
2013-05-26 11:54:00,73.8,66.5,30.06,North,11,20.0,34.0,78,0.00,,,0.00,Weather View 32 v70,2013-05-26 21:54:00,
2013-05-26 11:59:00,73.4,65.7,30.05,North,356,26.0,35.0,77,0.00,,,0.00,Weather View 32 v70,2013-05-26 21:59:00,
2013-05-26 12:04:00,73.7,65.6,30.05,NNW,343,26.0,35.0,76,0.00,,,0.00,Weather View 32 v70,2013-05-26 22:04:00,
2013-05-26 12:09:00,73.9,65.8,30.06,North,355,19.0,35.0,76,0.00,,,0.00,Weather View 32 v70,2013-05-26 22:09:00,
2013-05-26 12:14:00,74.0,66.3,30.07,NNW,342,21.0,35.0,77,0.00,,,0.00,Weather View 32 v70,2013-05-26 22:14:00,
2013-05-26 12:19:00,74.1,65.6,30.06,NNW,332,21.0,35.0,75,0.00,,,0.00,Weather View 32 v70,2013-05-26 22:19:00,
2013-05-26 12:24:00,74.4,65.5,30.04,North,357,22.0,35.0,74,0.00,,,0.00,Weather View 32 v70,2013-05-26 22:24:00,
2013-05-26 12:29:00,74.5,66.0,30.05,NNW,341,21.0,35.0,75,0.00,,,0.00,Weather View 32 v70,2013-05-26 22:29:00,
2013-05-26 12:34:00,74.8,65.9,30.05,NNW,336,27.0,36.0,74,0.00,,,0.00,Weather View 32 v70,2013-05-26 22:34:00,
2013-05-26 12:39:00,74.2,65.7,30.05,NNW,332,21.0,39.0,75,0.00,,,0.00,Weather View 32 v70,2013-05-26 22:39:00,
2013-05-26 12:44:00,74.1,66.4,30.05,North,357,18.0,39.0,77,0.00,,,0.00,Weather View 32 v70,2013-05-26 22:44:00,
2013-05-26 12:49:00,74.0,66.7,30.04,NNW,337,30.0,39.0,78,0.00,,,0.00,Weather View 32 v70,2013-05-26 22:49:00,
2013-05-26 12:54:00,73.8,66.9,30.05,NW,309,21.0,39.0,79,0.00,,,0.00,Weather View 32 v70,2013-05-26 22:54:00,
2013-05-26 12:59:00,73.9,66.9,30.05,North,4,17.0,39.0,79,0.00,,,0.00,Weather View 32 v70,2013-05-26 22:59:00,
2013-05-26 13:04:00,73.7,67.1,30.05,NNW,327,17.0,39.0,80,0.00,,,0.00,Weather View 32 v70,2013-05-26 23:04:00,
2013-05-26 13:09:00,74.0,67.0,30.03,North,349,26.0,39.0,79,0.00,,,0.00,Weather View 32 v70,2013-05-26 23:09:00,
2013-05-26 13:14:00,73.9,66.6,30.04,NNW,330,28.0,39.0,78,0.00,,,0.00,Weather View 32 v70,2013-05-26 23:14:00,
2013-05-26 13:19:00,74.0,67.0,30.05,NNW,341,19.0,39.0,79,0.00,,,0.00,Weather View 32 v70,2013-05-26 23:19:00,
2013-05-26 13:24:00,74.1,66.8,30.05,NW,318,27.0,39.0,78,0.00,,,0.00,Weather View 32 v70,2013-05-26 23:24:00,
2013-05-26 13:29:00,74.2,66.5,30.04,NNW,327,33.0,39.0,77,0.00,,,0.00,Weather View 32 v70,2013-05-26 23:29:00,
2013-05-26 13:34:00,74.6,66.9,30.04,North,357,16.0,39.0,77,0.00,,,0.00,Weather View 32 v70,2013-05-26 23:34:00,
2013-05-26 13:39:00,74.4,67.1,30.05,NNW,348,21.0,38.0,78,0.00,,,0.00,Weather View 32 v70,2013-05-26 23:39:00,
2013-05-26 13:44:00,74.6,67.3,30.04,North,354,16.0,38.0,78,0.00,,,0.00,Weather View 32 v70,2013-05-26 23:44:00,
2013-05-26 13:49:00,74.2,66.9,30.03,North,359,14.0,38.0,78,0.00,,,0.00,Weather View 32 v70,2013-05-26 23:49:00,
2013-05-26 13:54:00,74.4,67.1,30.03,North,353,26.0,38.0,78,0.00,,,0.00,Weather View 32 v70,2013-05-26 23:54:00,
2013-05-26 13:59:00,74.3,67.0,30.05,NNE,16,23.0,38.0,78,0.00,,,0.00,Weather View 32 v70,2013-05-26 23:59:00,
2013-05-26 14:04:00,74.4,67.1,30.03,NNW,347,26.0,38.0,78,0.00,,,0.00,Weather View 32 v70,2013-05-27 00:04:00,
2013-05-26 14:09:00,74.9,67.2,30.04,North,1,25.0,38.0,77,0.00,,,0.00,Weather View 32 v70,2013-05-27 00:09:00,
2013-05-26 14:14:00,74.6,66.9,30.04,North,6,18.0,38.0,77,0.00,,,0.00,Weather View 32 v70,2013-05-27 00:14:00,
2013-05-26 14:19:00,74.5,67.2,30.04,NNW,328,19.0,38.0,78,0.00,,,0.00,Weather View 32 v70,2013-05-27 00:19:00,
2013-05-26 14:24:00,74.1,66.4,30.05,North,9,29.0,35.0,77,0.00,,,0.00,Weather View 32 v70,2013-05-27 00:24:00,
2013-05-26 14:29:00,73.8,66.9,30.03,North,359,12.0,35.0,79,0.00,,,0.00,Weather View 32 v70,2013-05-27 00:29:00,
2013-05-26 14:34:00,73.8,66.9,30.04,North,10,24.0,35.0,79,0.00,,,0.00,Weather View 32 v70,2013-05-27 00:34:00,
2013-05-26 14:39:00,74.2,66.9,30.03,North,355,21.0,35.0,78,0.00,,,0.00,Weather View 32 v70,2013-05-27 00:39:00,